Back to catalog

STARLINK-4712

AliveCommunicationsVLEO
NORAD 53798·PAYLOAD·🇺🇸 United States

Launched Sep 11, 2022 from Cape Canaveral Space Force Station

Loading…

Next Passes (next 24 hours)

TLE

FreshSource: CelesTrak SupGP

Epoch: Sep 14, 2026, 14:18 UTC

1 53798C 22111AB  26257.59631944  .00033677  00000+0  10821-2 0  2578
2 53798  53.1576 133.3562 0001370  96.8678  34.7224 15.31712289    11

Track STARLINK-4712 in real time with AllMySat

Download on the App Store